Flag for Canada Weather past 2 weeks in Brantford, Ontario, Canada

Now
41 °F

Partly sunny.


Feels Like: 39 °F
Forecast: N/A
Wind: 3 mph from North

Location: Hamilton Airport

Current Time: Mar 31, 2015 at 5:26:58 PM

Latest Report: Mar 31, 2015 at 4:00 PM


Visibility: 15 mi

Pressure: 29.83 "Hg

Humidity: 57%

Dew point: 27 °F

Location of BrantfordLocation

Historic Weather in Brantford — Graph

°F

Brantford temperature yesterday

Maximum temperature yesterday: 41 °F (at 12:00 PM)
Minimum temperature yesterday: 30 °F (at 11:00 PM)
Average temperature yesterday: 37 °F

Past Weeks' High & Low Weather Summary

 TemperatureHumidityPressure
High48 °F (Mar 20, 4:00 PM)100% (Mar 16, 9:00 PM)30.42 "Hg (Mar 16, 9:00 PM)
Low12 °F (Mar 28, 6:00 AM)29% (Mar 19, 1:00 PM)29.62 "Hg (Mar 30, 4:00 AM)
Average29 °F65%30.09 "Hg
* Reported Mar 16 4:00 PM — Mar 31 4:00 PM, Brantford, Weather by CustomWeather, © 2015

Note: Actual official high and low records may vary slightly from our data, if they occured in-between our weather recording intervals... More about our weather records

Advertising

Brantford weather history for previous 24 hours

 ConditionsComfort  
Time TempWeatherWind HumidityBarometerVisibility
4:00 PM
Tue, Mar 31
41 °FPartly sunny.3 mph57%29.83 "Hg15 mi
3:00 PM41 °FPartly sunny.6 mph57%29.82 "Hg15 mi
2:00 PM39 °FBroken clouds.10 mph65%29.81 "Hg15 mi
1:00 PM36 °FPartly sunny.8 mph70%29.81 "Hg15 mi
12:00 PM34 °FMore clouds than sun.7 mph75%29.81 "Hg15 mi
11:00 AM34 °FCloudy.6 mph75%29.82 "Hg15 mi
10:00 AM32 °FMostly cloudy.3 mph80%29.84 "Hg15 mi
9:00 AM30 °FMostly cloudy.No wind86%29.83 "Hg15 mi
8:00 AM28 °FMostly cloudy.3 mph86%29.85 "Hg15 mi
7:00 AM28 °FPassing clouds.No wind86%29.85 "Hg15 mi
6:00 AM28 °FPassing clouds.5 mph80%29.86 "Hg15 mi
5:00 AM27 °FPassing clouds.3 mph86%29.88 "Hg15 mi
4:00 AM27 °FPassing clouds.6 mph86%29.89 "Hg15 mi
3:00 AM27 °FPassing clouds.3 mph86%29.91 "Hg15 mi
2:00 AM28 °FClear.6 mph80%29.93 "Hg15 mi
1:00 AM28 °FClear.7 mph80%29.95 "Hg15 mi
12:00 AM30 °FClear.9 mph75%29.95 "Hg15 mi
11:00 PM
Mon, Mar 30
30 °FClear.7 mph69%29.96 "Hg15 mi
10:00 PM32 °FClear.5 mph60%29.93 "Hg15 mi
9:00 PM34 °FPassing clouds.7 mph56%29.92 "Hg15 mi
8:00 PM36 °FPassing clouds.14 mph56%29.90 "Hg15 mi
7:00 PM37 °FPassing clouds.15 mph56%29.88 "Hg15 mi
6:00 PM39 °FScattered clouds.18 mph56%29.86 "Hg15 mi
5:00 PM41 °FBroken clouds.17 mph66%29.83 "Hg15 mi
Weather by CustomWeather, © 2015

See weather overviewHow to use our weather pages